Retour au catalogue

THORAD AGENA D DEB

ActifLEO
NORAD 4654·DEBRIS·🇺🇸 United States

Lancé Apr 8, 1970 depuis Vandenberg Space Force Base

Loading…

Prochains Passages (prochaines 24 heures)

TLE

FraisSource: Space-Track

Époque: Sep 14, 2026, 06:23 UTC

1 04654U 70025AN  26257.26614453  .00001528  00000-0  78362-3 0  9991
2 04654 100.0376  81.5749 0026974 184.6487 175.4437 14.17064693852555

Suivez THORAD AGENA D DEB en temps réel avec AllMySat

Download on the App Store